Time,TemperatureF,DewpointF,PressureIn,WindDirection,WindDirectionDegrees,WindSpeedMPH,WindSpeedGustMPH,Humidity,HourlyPrecipIn,Conditions,Clouds,dailyrainin,SoftwareType,DateUTC
2013-01-11 00:05:00,55.3,46.0,30.39,NNE,24,0.0,-999.0,72,-99.99,,,0.00,weatherlink.com 1.10,2013-01-11 05:05:00,
2013-01-11 00:20:00,53.6,47.0,30.38,NNE,24,0.0,-999.0,77,-99.99,,,0.01,weatherlink.com 1.10,2013-01-11 05:20:00,
2013-01-11 00:35:00,52.3,47.0,30.38,NNE,24,0.0,-999.0,82,-99.99,,,0.01,weatherlink.com 1.10,2013-01-11 05:35:00,
2013-01-11 00:50:00,51.4,47.0,30.38,NNE,24,0.0,-999.0,86,-99.99,,,0.01,weatherlink.com 1.10,2013-01-11 05:50:00,
2013-01-11 01:05:00,50.8,47.0,30.37,NNE,24,0.0,-999.0,87,-99.99,,,0.01,weatherlink.com 1.10,2013-01-11 06:05:00,
2013-01-11 01:20:00,50.4,47.0,30.36,NNE,24,0.0,-999.0,88,-99.99,,,0.01,weatherlink.com 1.10,2013-01-11 06:20:00,
2013-01-11 01:35:00,50.2,47.0,30.36,NNE,24,0.0,-999.0,89,-99.99,,,0.01,weatherlink.com 1.10,2013-01-11 06:35:00,
2013-01-11 02:06:00,49.7,47.0,30.35,NW,326,1.0,-999.0,89,-99.99,,,0.01,weatherlink.com 1.10,2013-01-11 07:06:00,
2013-01-11 02:21:00,49.4,46.0,30.34,NW,326,0.0,-999.0,89,-99.99,,,0.01,weatherlink.com 1.10,2013-01-11 07:21:00,
2013-01-11 02:36:00,49.2,47.0,30.35,NW,326,0.0,-999.0,90,-99.99,,,0.01,weatherlink.com 1.10,2013-01-11 07:36:00,
2013-01-11 02:51:00,49.0,46.0,30.34,NW,326,0.0,-999.0,90,-99.99,,,0.01,weatherlink.com 1.10,2013-01-11 07:51:00,
2013-01-11 03:06:00,48.9,46.0,30.34,NW,326,0.0,-999.0,90,-99.99,,,0.01,weatherlink.com 1.10,2013-01-11 08:06:00,
2013-01-11 03:21:00,48.8,46.0,30.34,NW,326,0.0,-999.0,91,-99.99,,,0.02,weatherlink.com 1.10,2013-01-11 08:21:00,
2013-01-11 03:36:00,48.6,46.0,30.33,NNW,331,0.0,-999.0,91,-99.99,,,0.02,weatherlink.com 1.10,2013-01-11 08:36:00,
2013-01-11 03:51:00,48.4,46.0,30.32,NNE,32,2.0,-999.0,91,-99.99,,,0.02,weatherlink.com 1.10,2013-01-11 08:51:00,
2013-01-11 04:06:00,48.5,46.0,30.31,North,360,0.0,-999.0,91,-99.99,,,0.02,weatherlink.com 1.10,2013-01-11 09:06:00,
2013-01-11 04:21:00,48.4,46.0,30.30,ENE,67,2.0,-999.0,91,-99.99,,,0.02,weatherlink.com 1.10,2013-01-11 09:21:00,
2013-01-11 04:37:00,48.3,46.0,30.30,NNW,346,0.0,-999.0,91,-99.99,,,0.02,weatherlink.com 1.10,2013-01-11 09:37:00,
2013-01-11 04:52:00,48.4,46.0,30.30,North,355,0.0,-999.0,92,-99.99,,,0.02,weatherlink.com 1.10,2013-01-11 09:52:00,
2013-01-11 05:07:00,48.5,46.0,30.31,East,98,2.0,-999.0,92,-99.99,,,0.02,weatherlink.com 1.10,2013-01-11 10:07:00,
2013-01-11 05:22:00,48.5,46.0,30.30,NNE,22,1.0,-999.0,92,-99.99,,,0.02,weatherlink.com 1.10,2013-01-11 10:22:00,
2013-01-11 05:37:00,48.6,46.0,30.30,NNE,27,2.0,-999.0,92,-99.99,,,0.02,weatherlink.com 1.10,2013-01-11 10:37:00,
2013-01-11 05:52:00,48.7,47.0,30.30,NW,321,0.0,-999.0,92,-99.99,,,0.02,weatherlink.com 1.10,2013-01-11 10:52:00,
2013-01-11 06:07:00,48.8,47.0,30.30,SSE,162,0.0,-999.0,92,-99.99,,,0.02,weatherlink.com 1.10,2013-01-11 11:07:00,
2013-01-11 06:22:00,48.9,47.0,30.30,NE,49,1.0,-999.0,92,-99.99,,,0.02,weatherlink.com 1.10,2013-01-11 11:22:00,
2013-01-11 06:37:00,49.0,47.0,30.28,North,5,0.0,-999.0,92,-99.99,,,0.02,weatherlink.com 1.10,2013-01-11 11:37:00,
2013-01-11 06:52:00,49.1,47.0,30.29,NNE,24,0.0,-999.0,92,-99.99,,,0.02,weatherlink.com 1.10,2013-01-11 11:52:00,
2013-01-11 07:07:00,49.1,47.0,30.29,NNE,13,0.0,-999.0,92,-99.99,,,0.02,weatherlink.com 1.10,2013-01-11 12:07:00,
2013-01-11 07:22:00,49.0,47.0,30.29,NNE,30,2.0,-999.0,92,-99.99,,,0.02,weatherlink.com 1.10,2013-01-11 12:22:00,
2013-01-11 07:37:00,48.9,47.0,30.30,NNE,25,0.0,-999.0,92,-99.99,,,0.02,weatherlink.com 1.10,2013-01-11 12:37:00,
2013-01-11 07:53:00,48.7,47.0,30.30,NNE,29,1.0,-999.0,92,-99.99,,,0.03,weatherlink.com 1.10,2013-01-11 12:53:00,
2013-01-11 08:08:00,48.6,46.0,30.30,North,355,2.0,-999.0,92,-99.99,,,0.03,weatherlink.com 1.10,2013-01-11 13:08:00,
2013-01-11 08:23:00,48.6,46.0,30.31,NW,321,0.0,-999.0,92,-99.99,,,0.03,weatherlink.com 1.10,2013-01-11 13:23:00,
2013-01-11 08:38:00,48.7,47.0,30.30,North,355,1.0,-999.0,92,-99.99,,,0.04,weatherlink.com 1.10,2013-01-11 13:38:00,
2013-01-11 08:53:00,48.7,47.0,30.31,NNW,348,2.0,-999.0,92,-99.99,,,0.04,weatherlink.com 1.10,2013-01-11 13:53:00,
2013-01-11 09:08:00,48.6,46.0,30.32,NNW,347,0.0,-999.0,92,-99.99,,,0.04,weatherlink.com 1.10,2013-01-11 14:08:00,
2013-01-11 09:23:00,48.7,47.0,30.31,North,11,0.0,-999.0,92,-99.99,,,0.04,weatherlink.com 1.10,2013-01-11 14:23:00,
2013-01-11 09:38:00,48.7,47.0,30.32,NNW,338,0.0,-999.0,92,-99.99,,,0.05,weatherlink.com 1.10,2013-01-11 14:38:00,
2013-01-11 09:53:00,48.8,47.0,30.31,NNW,332,0.0,-999.0,93,-99.99,,,0.05,weatherlink.com 1.10,2013-01-11 14:53:00,
2013-01-11 10:08:00,48.9,47.0,30.31,WNW,302,2.0,-999.0,93,-99.99,,,0.06,weatherlink.com 1.10,2013-01-11 15:08:00,
2013-01-11 10:23:00,49.0,47.0,30.30,NNE,15,0.0,-999.0,93,-99.99,,,0.07,weatherlink.com 1.10,2013-01-11 15:23:00,
2013-01-11 10:38:00,49.2,47.0,30.32,NE,36,0.0,-999.0,93,-99.99,,,0.09,weatherlink.com 1.10,2013-01-11 15:38:00,
2013-01-11 10:53:00,49.3,47.0,30.30,NE,36,0.0,-999.0,93,-99.99,,,0.09,weatherlink.com 1.10,2013-01-11 15:53:00,
2013-01-11 11:09:00,49.2,47.0,30.30,NNE,30,1.0,-999.0,93,-99.99,,,0.10,weatherlink.com 1.10,2013-01-11 16:09:00,
2013-01-11 11:24:00,48.9,47.0,30.29,North,360,2.0,-999.0,92,-99.99,,,0.10,weatherlink.com 1.10,2013-01-11 16:24:00,
2013-01-11 11:39:00,48.6,46.0,30.28,North,360,0.0,-999.0,92,-99.99,,,0.10,weatherlink.com 1.10,2013-01-11 16:39:00,
2013-01-11 11:54:00,48.4,46.0,30.27,NNW,346,2.0,-999.0,92,-99.99,,,0.10,weatherlink.com 1.10,2013-01-11 16:54:00,
2013-01-11 12:09:00,48.2,46.0,30.26,NW,321,0.0,-999.0,92,-99.99,,,0.10,weatherlink.com 1.10,2013-01-11 17:09:00,
2013-01-11 12:24:00,48.1,46.0,30.26,NNW,345,0.0,-999.0,92,-99.99,,,0.10,weatherlink.com 1.10,2013-01-11 17:24:00,
2013-01-11 12:39:00,48.2,46.0,30.24,NE,56,0.0,-999.0,92,-99.99,,,0.10,weatherlink.com 1.10,2013-01-11 17:39:00,
2013-01-11 12:54:00,48.1,46.0,30.25,NE,39,0.0,-999.0,92,-99.99,,,0.11,weatherlink.com 1.10,2013-01-11 17:54:00,
2013-01-11 13:09:00,48.2,46.0,30.24,West,278,0.0,-999.0,92,-99.99,,,0.11,weatherlink.com 1.10,2013-01-11 18:09:00,
2013-01-11 13:24:00,48.2,46.0,30.23,NE,46,1.0,-999.0,92,-99.99,,,0.11,weatherlink.com 1.10,2013-01-11 18:24:00,
2013-01-11 13:39:00,48.1,46.0,30.23,NE,50,0.0,-999.0,92,-99.99,,,0.11,weatherlink.com 1.10,2013-01-11 18:39:00,
2013-01-11 13:54:00,47.9,46.0,30.23,NW,309,0.0,-999.0,92,-99.99,,,0.12,weatherlink.com 1.10,2013-01-11 18:54:00,
2013-01-11 14:10:00,47.8,46.0,30.22,NNW,340,0.0,-999.0,92,-99.99,,,0.12,weatherlink.com 1.10,2013-01-11 19:10:00,
2013-01-11 14:25:00,47.9,46.0,30.22,NNE,20,0.0,-999.0,92,-99.99,,,0.12,weatherlink.com 1.10,2013-01-11 19:25:00,
2013-01-11 14:40:00,47.6,45.0,30.22,NNW,338,0.0,-999.0,92,-99.99,,,0.12,weatherlink.com 1.10,2013-01-11 19:40:00,
2013-01-11 14:55:00,47.5,45.0,30.23,NNW,348,0.0,-999.0,92,-99.99,,,0.12,weatherlink.com 1.10,2013-01-11 19:55:00,
2013-01-11 15:10:00,47.6,45.0,30.22,North,5,2.0,-999.0,92,-99.99,,,0.12,weatherlink.com 1.10,2013-01-11 20:10:00,
2013-01-11 15:25:00,47.4,45.0,30.22,NE,34,2.0,-999.0,92,-99.99,,,0.12,weatherlink.com 1.10,2013-01-11 20:25:00,
2013-01-11 15:40:00,47.4,45.0,30.22,North,5,0.0,-999.0,92,-99.99,,,0.12,weatherlink.com 1.10,2013-01-11 20:40:00,
2013-01-11 15:55:00,47.5,45.0,30.21,NE,46,0.0,-999.0,92,-99.99,,,0.12,weatherlink.com 1.10,2013-01-11 20:55:00,
2013-01-11 16:10:00,47.5,45.0,30.21,NE,49,0.0,-999.0,92,-99.99,,,0.12,weatherlink.com 1.10,2013-01-11 21:10:00,
2013-01-11 16:25:00,47.4,45.0,30.21,North,355,0.0,-999.0,92,-99.99,,,0.12,weatherlink.com 1.10,2013-01-11 21:25:00,
2013-01-11 16:40:00,47.3,45.0,30.21,North,355,0.0,-999.0,92,-99.99,,,0.12,weatherlink.com 1.10,2013-01-11 21:40:00,
2013-01-11 16:55:00,47.3,45.0,30.21,North,355,0.0,-999.0,92,-99.99,,,0.12,weatherlink.com 1.10,2013-01-11 21:55:00,
2013-01-11 17:11:00,47.3,45.0,30.20,North,355,0.0,-999.0,92,-99.99,,,0.12,weatherlink.com 1.10,2013-01-11 22:11:00,
2013-01-11 17:26:00,47.3,45.0,30.20,North,355,0.0,-999.0,92,-99.99,,,0.12,weatherlink.com 1.10,2013-01-11 22:26:00,
2013-01-11 17:41:00,47.2,45.0,30.20,North,351,0.0,-999.0,92,-99.99,,,0.12,weatherlink.com 1.10,2013-01-11 22:41:00,
2013-01-11 17:56:00,47.2,45.0,30.19,NNE,33,0.0,-999.0,93,-99.99,,,0.12,weatherlink.com 1.10,2013-01-11 22:56:00,
2013-01-11 18:11:00,47.2,45.0,30.21,NNE,33,0.0,-999.0,93,-99.99,,,0.13,weatherlink.com 1.10,2013-01-11 23:11:00,
2013-01-11 18:26:00,47.2,45.0,30.21,NNE,33,0.0,-999.0,93,-99.99,,,0.13,weatherlink.com 1.10,2013-01-11 23:26:00,
2013-01-11 18:41:00,47.2,45.0,30.22,NNE,33,0.0,-999.0,93,-99.99,,,0.13,weatherlink.com 1.10,2013-01-11 23:41:00,
2013-01-11 18:56:00,47.2,45.0,30.22,NNE,33,0.0,-999.0,93,-99.99,,,0.13,weatherlink.com 1.10,2013-01-11 23:56:00,
2013-01-11 19:11:00,47.2,45.0,30.23,NNW,345,0.0,-999.0,93,-99.99,,,0.13,weatherlink.com 1.10,2013-01-12 00:11:00,
2013-01-11 19:26:00,47.2,45.0,30.23,North,355,0.0,-999.0,93,-99.99,,,0.13,weatherlink.com 1.10,2013-01-12 00:26:00,
2013-01-11 19:41:00,47.3,45.0,30.23,North,355,0.0,-999.0,93,-99.99,,,0.13,weatherlink.com 1.10,2013-01-12 00:41:00,
2013-01-11 19:56:00,47.4,46.0,30.23,North,355,0.0,-999.0,93,-99.99,,,0.13,weatherlink.com 1.10,2013-01-12 00:56:00,
2013-01-11 20:11:00,47.5,46.0,30.22,North,355,0.0,-999.0,93,-99.99,,,0.13,weatherlink.com 1.10,2013-01-12 01:11:00,
2013-01-11 20:27:00,47.5,46.0,30.22,North,355,0.0,-999.0,93,-99.99,,,0.14,weatherlink.com 1.10,2013-01-12 01:27:00,
2013-01-11 20:42:00,47.7,46.0,30.21,North,355,0.0,-999.0,93,-99.99,,,0.14,weatherlink.com 1.10,2013-01-12 01:42:00,
2013-01-11 20:57:00,47.8,46.0,30.22,North,355,0.0,-999.0,93,-99.99,,,0.14,weatherlink.com 1.10,2013-01-12 01:57:00,
2013-01-11 21:12:00,47.9,46.0,30.21,North,355,0.0,-999.0,93,-99.99,,,0.14,weatherlink.com 1.10,2013-01-12 02:12:00,
2013-01-11 21:27:00,48.1,46.0,30.21,North,355,0.0,-999.0,93,-99.99,,,0.14,weatherlink.com 1.10,2013-01-12 02:27:00,
2013-01-11 21:42:00,48.2,46.0,30.21,North,355,0.0,-999.0,93,-99.99,,,0.14,weatherlink.com 1.10,2013-01-12 02:42:00,
2013-01-11 21:57:00,48.2,46.0,30.21,North,355,0.0,-999.0,93,-99.99,,,0.14,weatherlink.com 1.10,2013-01-12 02:57:00,
2013-01-11 22:12:00,48.3,46.0,30.22,North,355,0.0,-999.0,93,-99.99,,,0.14,weatherlink.com 1.10,2013-01-12 03:12:00,
2013-01-11 22:27:00,48.4,47.0,30.22,North,355,0.0,-999.0,93,-99.99,,,0.14,weatherlink.com 1.10,2013-01-12 03:27:00,
2013-01-11 22:42:00,48.5,47.0,30.21,North,355,0.0,-999.0,93,-99.99,,,0.14,weatherlink.com 1.10,2013-01-12 03:42:00,
2013-01-11 22:57:00,48.4,47.0,30.20,North,355,0.0,-999.0,93,-99.99,,,0.14,weatherlink.com 1.10,2013-01-12 03:57:00,
2013-01-11 23:12:00,48.5,47.0,30.20,North,355,0.0,-999.0,93,-99.99,,,0.14,weatherlink.com 1.10,2013-01-12 04:12:00,
2013-01-11 23:27:00,48.6,47.0,30.20,North,355,0.0,-999.0,93,-99.99,,,0.14,weatherlink.com 1.10,2013-01-12 04:27:00,
2013-01-11 23:42:00,48.6,47.0,30.20,North,355,0.0,-999.0,93,-99.99,,,0.14,weatherlink.com 1.10,2013-01-12 04:42:00,
2013-01-11 23:58:00,48.7,47.0,30.19,North,355,0.0,-999.0,93,-99.99,,,0.00,weatherlink.com 1.10,2013-01-12 04:58:00,